ZL1CTS-13 Weather Reports


time (UTC)temp
F
wind
direction
speed
knots
gust
knots
rain 1hr
in
rain 24hr
in
rain mn
in
humidity
%
barometer
mb
20260509234004 66 225 2.6 7.0 0.00 0.08 0.00 82 992.7
20260509233004 67 256 3.5 7.0 0.00 0.08 0.00 84 993.1
20260509232004 66 315 3.5 8.7 0.00 0.08 0.00 84 993.0
20260509231003 65 315 4.3 7.8 0.00 0.09 0.00 84 993.1
20260509230004 66 161 2.6 5.2 0.00 0.09 0.00 87 993.1
20260509225004 63 225 2.6 5.2 0.00 0.09 0.00 85 993.4
20260509224004 65 270 2.6 7.0 0.00 0.09 0.00 87 993.4
20260509223004 64 251 2.6 5.2 0.00 0.09 0.00 88 993.5
20260509222004 63 259 2.6 5.2 0.00 0.09 0.00 88 993.4
20260509221004 64 238 2.6 5.2 0.00 0.09 0.00 87 993.4
20260509220004 64 261 2.6 5.2 0.00 0.09 0.00 89 993.4
20260509215004 62 225 1.7 8.7 0.00 0.09 0.00 90 993.4
20260509214004 64 249 2.6 5.2 0.00 0.09 0.00 91 993.4
20260509213004 63 225 0.9 2.6 0.00 0.09 0.00 93 993.4
20260509212006 61 256 0.9 5.2 0.00 0.09 0.00 96 993.5
20260509211004 60 275 1.7 5.2 0.00 0.09 0.00 97 993.6
20260509210004 59 210 0.9 2.6 0.00 0.09 0.00 98 993.5
20260509205005 57 270 0.0 2.6 0.00 0.09 0.00 99 993.5
20260509204004 57 222 0.0 1.7 0.00 0.09 0.00 99 993.4
20260509203004 56 225 0.9 1.7 0.00 0.10 0.00 99 993.4
20260509202004 56 225 0.9 1.7 0.00 0.10 0.00 99 993.1
20260509201004 54 180 0.0 1.7 0.00 0.10 0.00 97 992.8
20260509200004 54 180 0.0 1.7 0.00 0.10 0.00 97 992.7
20260509195004 53 140 0.9 1.7 0.00 0.16 0.00 98 992.5
20260509194003 54 108 0.0 0.9 0.00 0.16 0.00 97 992.4
20260509193004 53 135 0.0 0.9 0.00 0.16 0.00 98 992.5
20260509192004 53 117 0.0 2.6 0.00 0.16 0.00 98 992.3
20260509191004 54 66 1.7 2.6 0.00 0.16 0.00 97 992.2
20260509190004 55 218 0.0 2.6 0.00 0.16 0.00 98 992.3
20260509185003 56 297 1.7 2.6 0.00 0.16 0.00 99 992.3
20260509184003 56 225 0.9 2.6 0.00 0.16 0.00 99 992.3
20260509183004 56 248 0.9 2.6 0.00 0.16 0.00 99 992.2
20260509182004 56 270 1.7 2.6 0.00 0.16 0.00 99 992.2
20260509181004 54 258 0.9 2.6 0.00 0.16 0.00 97 992.1
20260509180004 53 225 0.9 2.6 0.00 0.16 0.00 98 992.2
20260509175004 54 225 0.9 1.7 0.00 0.16 0.00 97 992.2
20260509174004 54 203 0.9 2.6 0.00 0.16 0.00 97 992.2
20260509173004 54 148 0.0 0.9 0.00 0.16 0.00 97 992.2
20260509172003 54 203 0.9 1.7 0.00 0.16 0.00 97 992.2
20260509171004 54 225 0.9 2.6 0.00 0.16 0.00 97 992.1
20260509170006 54 211 0.9 2.6 0.00 0.16 0.00 97 991.9
20260509165005 53 225 0.9 1.7 0.00 0.16 0.00 98 991.8
20260509164004 54 90 0.9 1.7 0.00 0.16 0.00 97 992.0
20260509163004 54 90 0.0 0.9 0.00 0.16 0.00 97 991.9
20260509162004 55 181 0.0 1.7 0.00 0.16 0.00 97 991.9
20260509161004 55 225 0.9 1.7 0.00 0.16 0.00 97 991.9
20260509160004 55 224 0.9 2.6 0.00 0.16 0.00 97 992.0
20260509155006 55 187 0.9 1.7 0.00 0.16 0.00 97 992.0
20260509154004 55 225 0.9 1.7 0.00 0.16 0.00 97 992.1
20260509153003 55 225 0.9 2.6 0.00 0.16 0.00 99 992.1
20260509152004 55 225 0.9 2.6 0.00 0.16 0.00 97 992.2
20260509151004 54 225 0.9 2.6 0.00 0.16 0.00 97 992.2
20260509150004 53 225 0.9 1.7 0.00 0.16 0.00 98 992.4
20260509145003 54 180 0.9 1.7 0.00 0.16 0.00 97 992.6
20260509144004 54 219 0.9 1.7 0.00 0.16 0.00 97 992.7
20260509143004 53 180 0.9 1.7 0.00 0.16 0.00 98 992.8
20260509142004 53 173 0.0 1.7 0.00 0.16 0.00 98 992.9
20260509141004 54 225 0.9 1.7 0.00 0.16 0.00 97 993.1
20260509140005 55 225 0.0 4.3 0.00 0.16 0.00 97 993.2
20260509135004 53 268 1.7 2.6 0.00 0.17 0.00 98 993.2
20260509134004 51 90 0.0 1.7 0.00 0.17 0.00 99 993.0
20260509133004 52 84 0.0 1.7 0.00 0.17 0.00 99 993.1
20260509132003 53 90 0.9 0.9 0.00 0.17 0.00 98 993.0
20260509131004 54 148 0.9 1.7 0.00 0.17 0.00 97 993.2
20260509130004 54 90 0.9 1.7 0.00 0.17 0.00 97 993.2
20260509125004 52 240 1.7 2.6 0.00 0.17 0.00 98 993.1
20260509124003 50 45 0.9 0.9 0.00 0.17 0.00 99 993.2
20260509123004 51 72 0.9 1.7 0.00 0.17 0.00 99 993.1
20260509122003 51 94 0.9 1.7 0.00 0.17 0.00 99 993.2
20260509121004 51 135 0.9 1.7 0.00 0.17 0.00 99 993.3
20260509120004 52 135 0.9 1.7 0.00 0.17 0.00 98 993.2
20260509115004 53 135 0.0 0.9 0.00 0.17 0.17 98 993.4
20260509114003 54 135 0.0 0.9 0.00 0.17 0.17 97 993.3
20260509113004 54 135 0.9 0.9 0.00 0.17 0.17 97 993.4
20260509112004 53 140 0.0 0.9 0.00 0.17 0.17 98 993.5
20260509111004 54 135 0.0 0.9 0.00 0.17 0.17 97 993.6
20260509110003 54 135 0.0 0.9 0.00 0.17 0.17 97 993.5
20260509105004 53 180 0.9 0.9 0.00 0.17 0.17 98 993.6
20260509104004 53 128 0.9 0.9 0.00 0.18 0.17 98 993.6
20260509103004 53 90 0.9 1.7 0.00 0.25 0.17 98 993.6
20260509102003 54 99 0.9 0.9 0.00 0.25 0.17 97 993.4
20260509101004 54 159 0.9 1.7 0.00 0.28 0.17 97 993.5
20260509100005 54 143 0.9 0.9 0.00 0.29 0.17 97 993.3
20260509095003 53 34 0.9 2.6 0.00 0.30 0.17 98 993.5
20260509094004 53 346 0.9 1.7 0.00 0.34 0.17 98 993.4
20260509093006 54 74 0.9 1.7 0.00 0.38 0.17 97 993.3
20260509092006 55 125 0.9 1.7 0.00 0.41 0.17 97 993.3
20260509091005 55 197 0.0 0.0 0.00 0.41 0.17 97 993.2
20260509090004 55 135 0.0 1.7 0.00 0.43 0.17 97 993.3
20260509085004 55 150 0.0 0.9 0.00 0.43 0.17 97 993.5
20260509084004 55 135 0.9 1.7 0.00 0.45 0.17 97 993.5
20260509083004 56 135 0.9 0.9 0.00 0.50 0.17 99 993.4
20260509082003 56 135 0.0 0.9 0.00 0.52 0.17 99 993.5
20260509081004 56 167 0.0 0.9 0.00 0.59 0.17 99 993.4
20260509080004 56 90 0.9 0.9 0.00 0.64 0.17 99 993.3
20260509075003 56 135 0.0 0.0 0.00 0.67 0.17 99 993.3
20260509074003 57 180 0.0 0.0 0.00 0.71 0.17 99 993.3
20260509073004 57 90 0.0 0.9 0.01 0.76 0.17 99 993.2
20260509072004 57 90 0.9 0.9 0.03 0.83 0.17 99 993.1
20260509071004 57 156 0.0 0.9 0.04 0.84 0.17 99 993.2
20260509070004 58 220 0.9 1.7 0.04 0.84 0.17 99 993.0
20260509065004 57 225 0.9 1.7 0.04 0.84 0.17 99 993.0
20260509064004 58 225 0.0 1.7 0.04 0.84 0.17 97 993.0
20260509063004 58 221 0.9 5.2 0.03 0.83 0.16 96 992.8
20260509062004 60 287 2.6 5.2 0.01 0.81 0.14 95 992.8
20260509061004 59 225 0.9 1.7 0.00 0.80 0.13 94 992.5
20260509060004 60 180 0.0 0.0 0.00 0.80 0.13 94 992.6
20260509055004 60 225 0.0 0.9 0.00 0.80 0.13 94 992.5
20260509054004 60 225 0.9 2.6 0.00 0.80 0.13 94 992.6
20260509053003 61 225 0.9 2.6 0.00 0.80 0.13 94 992.5
20260509052004 61 228 0.9 4.3 0.00 0.80 0.13 94 992.8
20260509051004 62 241 0.9 2.6 0.00 0.80 0.13 95 992.5
20260509050007 61 298 0.9 1.7 0.00 0.81 0.13 94 992.6
20260509045006 61 287 0.0 0.9 0.00 0.84 0.13 94 992.9
20260509044006 61 228 0.9 2.6 0.00 0.85 0.13 94 993.0
20260509043004 62 210 0.0 4.3 0.00 0.89 0.13 94 992.9
20260509042004 62 255 0.9 1.7 0.00 0.97 0.13 94 992.9
20260509041004 62 225 0.9 0.9 0.00 0.97 0.13 94 992.9
20260509040004 62 247 0.9 2.6 0.00 0.97 0.13 93 993.0
20260509035004 62 232 0.9 1.7 0.00 0.98 0.13 92 993.1
20260509034004 63 225 1.7 5.2 0.00 0.98 0.13 89 993.0
20260509033004 64 270 3.5 6.1 0.00 0.98 0.13 91 992.8
20260509032004 63 252 0.9 2.6 0.00 0.98 0.13 91 992.6
20260509031004 63 270 1.7 7.0 0.00 0.98 0.13 91 992.9
20260509030004 63 342 2.6 7.0 0.00 0.98 0.13 90 993.0
20260509025003 63 250 0.9 2.6 0.00 0.98 0.13 89 993.0
20260509024004 63 260 1.7 4.3 0.00 0.98 0.13 89 993.3
20260509023004 64 225 1.7 5.2 0.00 0.98 0.13 88 993.4
20260509022004 63 260 1.7 2.6 0.00 0.98 0.13 89 993.3
20260509021004 63 253 1.7 2.6 0.00 0.98 0.13 89 993.3
20260509020004 63 270 1.7 4.3 0.00 0.98 0.13 88 993.3
20260509015004 63 225 2.6 10.4 0.01 0.98 0.13 86 993.2
20260509014004 65 270 4.3 8.7 0.01 0.98 0.13 87 992.9
20260509013007 68 270 2.6 6.1 0.01 0.98 0.13 90 992.8
20260509012005 66 288 2.6 8.7 0.01 0.98 0.13 93 993.0
20260509011004 64 300 4.3 13.9 0.04 0.98 0.13 92 993.4
20260509010003 64 228 5.2 10.4 0.04 0.98 0.13 95 993.5
20260509005003 63 344 3.5 6.1 0.03 0.97 0.12 96 993.4
20260509004003 62 279 1.7 6.1 0.03 0.97 0.12 97 993.6
20260509003003 62 225 0.9 2.6 0.03 0.97 0.12 95 993.6
20260509002004 61 225 1.7 5.2 0.03 0.97 0.12 92 993.9
20260509001004 64 246 4.3 11.3 0.01 0.94 0.09 88 994.1
20260509000004 65 315 5.2 11.3 0.01 0.94 0.09 88 994.1
20260508235004 66 236 5.2 12.2 0.01 0.94 0.09 84 994.1